Weather in Mordovskiy Buguruslan

Russia / Orenburg Oblast     53°47′35″N   52°31′04″E
temp.,
°C
wind,
m/s
gust,
m/s
humid.,
%
clouds,
%
prec.,
mm/h
press.,
hPa
HPBL,
m
1 march, mon
mon123:00−16nnw339378 0.0 101255
02:00−17nnw239473 0.0 101343
05:00−19nw229559 0.0 101520
08:00−20nw229660 0.0 101720
11:00−18nw239230 0.0 1019176
14:00−15nw348836 0.0 1020335
17:00−15nw469268 0.0 1021397
20:00−19wnw239857 0.0 102120
2 march, tue
tue223:00−22w129935 0.0 102120
02:00−22sw2210052 0.0 102020
05:00−21ssw349964 0.0 101780
08:00−16s41097100 0.1 1014290
11:00−12ssw61195100 0.9 1011496
14:00−8sw71294100 0.7 1008611
17:00−4sw71395100 1.5 1005671
20:00−3sw71396100 1.0 1002640
3 march, wed
wed323:00−2sw71396100 2.2 1001570
02:00−1wsw599699 0.3 1000413
05:00−4w479597 0.4 1001274
08:00−8w249699 0.0 1001102
11:00−7wsw249693 0.1 1003163
14:00−4wsw359496 0.1 1003346
17:00−3w469296 0.1 1003524
20:00−5w3796100 0.1 1004206
4 march, thu
thu423:00−10wnw349380 0.2 100654
02:00−11wnw359667 0.0 100686
05:00−13w349667 0.1 100749
08:00−14wsw349853 0.0 100878
11:00−11sw599576 0.1 1008287
14:00−8sw6994100 0.1 1007401
17:00−6sw71192100 0.2 1006622
20:00−5ssw81594100 0.2 1004773
5 march, fri
fri523:00−3sw91795100 1.4 1002944
02:00−1sw111795100 1.6 999955
05:00−1sw111893100 2.2 9981042
08:00−2wsw111894100 0.7 999974
11:00−1w91391100 1.4 10021153
14:00−4wnw7118055 0.1 1006721
17:00−5w478728 0.1 1010484
20:00−11w23932 0.0 101221